QTR1161 OERK-OTHH

Flight info

Callsign QTR1161
Flight time 0h 51m
Altitude 39000
Route OTALI M440 SITER DCT LADBO/N0432F290 T142 LAEEB
Aircraft A320/M-SDE3FGHIRWY/LB1

Departure

Time 2026-05-08 08:34
Airport King Khalid International Airport (OERK)

Arrival

Time 2026-05-08 09:26
Airport Hamad International Airport (OTHH)
Time Latitude Longitude Altitude Speed Heading
2026-05-08 08:09 24.94283 46.71296 2033 ft 0 kts 239°
2026-05-08 08:25 24.94287 46.71305 2036 ft 4 kts 240°
2026-05-08 08:25 24.94300 46.71331 2039 ft 4 kts 243°
2026-05-08 08:25 24.94312 46.71358 2041 ft 4 kts 248°
2026-05-08 08:25 24.94321 46.71386 2039 ft 4 kts 259°
2026-05-08 08:26 24.94321 46.71413 2037 ft 4 kts 300°
2026-05-08 08:26 24.94313 46.71423 2037 ft 1 kts 330°
2026-05-08 08:26 24.94312 46.71424 2040 ft 0 kts 330°
2026-05-08 08:29 24.94313 46.71423 2037 ft 2 kts 330°
2026-05-08 08:29 24.94340 46.71406 2042 ft 7 kts 330°
2026-05-08 08:29 24.94392 46.71374 2036 ft 11 kts 331°
2026-05-08 08:29 24.94475 46.71320 2038 ft 16 kts 329°
2026-05-08 08:30 24.94582 46.71269 2036 ft 17 kts
2026-05-08 08:30 24.94654 46.71373 2036 ft 18 kts 60°
2026-05-08 08:30 24.94791 46.71635 2039 ft 21 kts 63°
2026-05-08 08:31 24.94721 46.71733 2035 ft 17 kts 151°
2026-05-08 08:31 24.94624 46.71795 2032 ft 15 kts 150°
2026-05-08 08:31 24.94539 46.71849 2038 ft 13 kts 150°
2026-05-08 08:31 24.94464 46.71897 2035 ft 12 kts 150°
2026-05-08 08:32 24.94427 46.71957 2035 ft 9 kts 78°
2026-05-08 08:32 24.94459 46.72015 2033 ft 9 kts 57°
2026-05-08 08:32 24.94489 46.72070 2038 ft 8 kts 60°
2026-05-08 08:32 24.94515 46.72119 2034 ft 8 kts 60°
2026-05-08 08:33 24.94554 46.72161 2037 ft 8 kts 26°
2026-05-08 08:33 24.94628 46.72133 2037 ft 25 kts 329°
2026-05-08 08:33 24.95010 46.71893 2036 ft 98 kts 329°
2026-05-08 08:33 24.95774 46.71410 2036 ft 153 kts 329°
2026-05-08 08:34 24.96818 46.70764 2237 ft 181 kts 330°
2026-05-08 08:34 24.97926 46.70086 3054 ft 184 kts 334°
2026-05-08 08:34 24.99133 46.69524 3543 ft 195 kts 340°
2026-05-08 08:34 25.00476 46.68997 3807 ft 216 kts 342°
2026-05-08 08:35 25.01981 46.68421 4052 ft 242 kts 342°
2026-05-08 08:35 25.03625 46.67789 4404 ft 265 kts 342°
2026-05-08 08:35 25.05427 46.67091 5084 ft 275 kts 342°
2026-05-08 08:35 25.07217 46.66399 5894 ft 278 kts 343°
2026-05-08 08:36 25.09118 46.66003 6736 ft 279 kts 357°
2026-05-08 08:36 25.11062 46.66150 7526 ft 282 kts 12°
2026-05-08 08:36 25.12956 46.66785 8268 ft 288 kts 19°
2026-05-08 08:36 25.14868 46.67520 9038 ft 294 kts 21°
2026-05-08 08:37 25.16653 46.68651 9777 ft 300 kts 40°
2026-05-08 08:37 25.18072 46.70378 10275 ft 314 kts 58°
2026-05-08 08:37 25.18943 46.72667 10505 ft 336 kts 79°
2026-05-08 08:37 25.19083 46.75279 11000 ft 345 kts 92°
2026-05-08 08:38 25.19059 46.77954 11721 ft 350 kts 92°
2026-05-08 08:38 25.19053 46.80657 12455 ft 355 kts 92°
2026-05-08 08:38 25.19055 46.83392 13178 ft 359 kts 92°
2026-05-08 08:38 25.18892 46.86144 13883 ft 360 kts 103°
2026-05-08 08:39 25.18239 46.88817 14494 ft 361 kts 115°
2026-05-08 08:39 25.17127 46.91294 15098 ft 362 kts 122°
2026-05-08 08:39 25.15892 46.93731 15721 ft 367 kts 123°
2026-05-08 08:39 25.14641 46.96210 16334 ft 371 kts 123°
2026-05-08 08:40 25.13382 46.98715 16908 ft 376 kts 122°
2026-05-08 08:40 25.12109 47.01261 17490 ft 381 kts 122°
2026-05-08 08:40 25.10819 47.03835 18072 ft 386 kts 122°
2026-05-08 08:40 25.09514 47.06436 18591 ft 390 kts 122°
2026-05-08 08:41 25.08192 47.09074 19095 ft 394 kts 122°
2026-05-08 08:41 25.06863 47.11727 19605 ft 398 kts 122°
2026-05-08 08:41 25.05556 47.14331 20091 ft 401 kts 123°
2026-05-08 08:41 25.04177 47.17079 20607 ft 405 kts 123°
2026-05-08 08:42 25.02806 47.19806 21108 ft 408 kts 123°
2026-05-08 08:42 25.01419 47.22555 21597 ft 411 kts 123°
2026-05-08 08:42 25.00023 47.25321 22078 ft 415 kts 123°
2026-05-08 08:42 24.98615 47.28110 22562 ft 418 kts 123°
2026-05-08 08:43 24.97197 47.30921 23018 ft 422 kts 123°
2026-05-08 08:43 24.95762 47.33762 23482 ft 424 kts 123°
2026-05-08 08:43 24.94325 47.36609 23901 ft 427 kts 123°
2026-05-08 08:43 24.92843 47.39448 24279 ft 427 kts 127°
2026-05-08 08:44 24.91037 47.42019 24679 ft 423 kts 137°
2026-05-08 08:44 24.88969 47.44260 25066 ft 423 kts 141°
2026-05-08 08:44 24.86836 47.46503 25457 ft 425 kts 141°
2026-05-08 08:44 24.84668 47.48784 25838 ft 427 kts 141°
2026-05-08 08:45 24.82540 47.51024 26208 ft 429 kts 141°
2026-05-08 08:45 24.80376 47.53302 26570 ft 431 kts 141°
2026-05-08 08:45 24.78201 47.55589 26939 ft 433 kts 142°
2026-05-08 08:45 24.76724 47.57140 27190 ft 435 kts 142°
2026-05-08 08:46 24.73820 47.60191 27657 ft 438 kts 142°
2026-05-08 08:46 24.71612 47.62512 27997 ft 440 kts 142°
2026-05-08 08:46 24.70119 47.64081 28230 ft 442 kts 142°
2026-05-08 08:46 24.67885 47.66427 28581 ft 444 kts 142°
2026-05-08 08:47 24.65647 47.68772 28918 ft 446 kts 143°
2026-05-08 08:47 24.63395 47.71133 29238 ft 448 kts 143°
2026-05-08 08:47 24.61132 47.73507 29547 ft 451 kts 143°
2026-05-08 08:47 24.58854 47.75892 29845 ft 453 kts 143°
2026-05-08 08:48 24.56708 47.78460 30124 ft 463 kts 134°
2026-05-08 08:48 24.54934 47.81458 30373 ft 474 kts 124°
2026-05-08 08:48 24.53628 47.84817 30634 ft 483 kts 115°
2026-05-08 08:48 24.52512 47.88299 30895 ft 484 kts 115°
2026-05-08 08:49 24.51400 47.91741 31147 ft 485 kts 116°
2026-05-08 08:49 24.50261 47.95235 31417 ft 486 kts 116°
2026-05-08 08:49 24.49119 47.98722 31784 ft 484 kts 116°
2026-05-08 08:49 24.47981 48.02191 32169 ft 482 kts 116°
2026-05-08 08:50 24.46844 48.05653 32525 ft 482 kts 116°
2026-05-08 08:50 24.45709 48.09108 32896 ft 481 kts 116°
2026-05-08 08:50 24.44576 48.12555 33267 ft 480 kts 117°
2026-05-08 08:50 24.43445 48.15993 33637 ft 478 kts 117°
2026-05-08 08:51 24.42316 48.19424 34002 ft 477 kts 117°
2026-05-08 08:51 24.41192 48.22847 34324 ft 476 kts 117°
2026-05-08 08:51 24.40074 48.26262 34654 ft 475 kts 117°
2026-05-08 08:51 24.38958 48.29668 34982 ft 474 kts 117°
2026-05-08 08:52 24.37846 48.33057 35272 ft 473 kts 117°
2026-05-08 08:52 24.36732 48.36455 35562 ft 472 kts 117°
2026-05-08 08:52 24.35620 48.39830 35840 ft 471 kts 117°
2026-05-08 08:52 24.34504 48.43205 36107 ft 470 kts 117°
2026-05-08 08:53 24.33388 48.46575 36369 ft 470 kts 117°
2026-05-08 08:53 24.32274 48.49942 36624 ft 469 kts 117°
2026-05-08 08:53 24.31156 48.53302 36877 ft 469 kts 118°
2026-05-08 08:53 24.30040 48.56657 37126 ft 468 kts 118°
2026-05-08 08:54 24.28929 48.60000 37383 ft 468 kts 118°
2026-05-08 08:54 24.27815 48.63348 37617 ft 467 kts 118°
2026-05-08 08:54 24.26702 48.66693 37847 ft 466 kts 118°
2026-05-08 08:54 24.25593 48.70027 38081 ft 466 kts 117°
2026-05-08 08:55 24.24484 48.73358 38303 ft 465 kts 118°
2026-05-08 08:55 24.23376 48.76683 38539 ft 464 kts 118°
2026-05-08 08:55 24.22271 48.80004 38728 ft 464 kts 118°
2026-05-08 08:55 24.21165 48.83322 38869 ft 464 kts 118°
2026-05-08 08:56 24.19175 48.90076 38913 ft 474 kts 107°
2026-05-08 08:56 24.18959 48.97397 38908 ft 489 kts 91°
2026-05-08 08:57 24.19502 49.04827 38911 ft 489 kts 91°
2026-05-08 08:57 24.20033 49.12257 38904 ft 489 kts 91°
2026-05-08 08:58 24.20555 49.19675 38900 ft 489 kts 91°
2026-05-08 08:58 24.21070 49.27103 38909 ft 489 kts 91°
2026-05-08 08:59 24.21578 49.34531 38905 ft 489 kts 91°
2026-05-08 08:59 24.22096 49.41955 38916 ft 489 kts 91°
2026-05-08 09:00 24.22606 49.49378 38916 ft 488 kts 91°
2026-05-08 09:00 24.23101 49.56751 38911 ft 488 kts 91°
2026-05-08 09:01 24.23595 49.64223 38910 ft 488 kts 91°
2026-05-08 09:01 24.24090 49.71637 38912 ft 488 kts 91°
2026-05-08 09:02 24.24581 49.79010 38913 ft 488 kts 91°
2026-05-08 09:02 24.25071 49.86430 38913 ft 488 kts 91°
2026-05-08 09:03 24.25558 49.93845 38913 ft 488 kts 91°
2026-05-08 09:03 24.26040 50.01258 38913 ft 487 kts 91°
2026-05-08 09:04 24.26515 50.08665 38915 ft 487 kts 91°
2026-05-08 09:04 24.26983 50.16066 38915 ft 487 kts 91°
2026-05-08 09:05 24.27456 50.23455 38912 ft 486 kts 91°
2026-05-08 09:05 24.27926 50.30838 38920 ft 485 kts 91°
2026-05-08 09:06 24.28383 50.38194 38921 ft 483 kts 91°
2026-05-08 09:06 24.28833 50.45543 38595 ft 485 kts 91°
2026-05-08 09:07 24.29058 50.49254 37592 ft 492 kts 91°
2026-05-08 09:07 24.29287 50.53017 36745 ft 496 kts 91°
2026-05-08 09:07 24.29519 50.56798 35895 ft 499 kts 91°
2026-05-08 09:07 24.29751 50.60618 34958 ft 505 kts 90°
2026-05-08 09:08 24.29984 50.64478 34011 ft 510 kts 90°
2026-05-08 09:08 24.30218 50.68371 33214 ft 510 kts 90°
2026-05-08 09:08 24.30452 50.72233 32567 ft 506 kts 90°
2026-05-08 09:08 24.30683 50.76071 31886 ft 503 kts 90°
2026-05-08 09:09 24.30908 50.79886 31217 ft 500 kts 90°
2026-05-08 09:09 24.31132 50.83677 30557 ft 497 kts 90°
2026-05-08 09:09 24.31354 50.87446 29936 ft 493 kts 89°
2026-05-08 09:09 24.31573 50.91174 29229 ft 489 kts 89°
2026-05-08 09:10 24.31787 50.94853 28694 ft 481 kts 89°
2026-05-08 09:10 24.31998 50.98503 28065 ft 476 kts 89°
2026-05-08 09:10 24.32207 51.02106 27400 ft 473 kts 89°
2026-05-08 09:10 24.32417 51.05675 26954 ft 465 kts 89°
2026-05-08 09:11 24.32623 51.09182 26252 ft 456 kts 89°
2026-05-08 09:11 24.32822 51.12613 25605 ft 443 kts 89°
2026-05-08 09:11 24.33011 51.15919 25109 ft 427 kts 89°
2026-05-08 09:11 24.33273 51.19105 24612 ft 414 kts 82°
2026-05-08 09:12 24.34016 51.22105 24141 ft 403 kts 70°
2026-05-08 09:12 24.35249 51.24817 23685 ft 393 kts 58°
2026-05-08 09:12 24.36898 51.27160 23166 ft 385 kts 46°
2026-05-08 09:12 24.38835 51.29179 22702 ft 383 kts 43°
2026-05-08 09:13 24.40777 51.31168 22211 ft 381 kts 44°
2026-05-08 09:13 24.42707 51.33164 21748 ft 381 kts 44°
2026-05-08 09:13 24.44630 51.35159 21269 ft 380 kts 44°
2026-05-08 09:13 24.46544 51.37148 20785 ft 379 kts 45°
2026-05-08 09:14 24.48465 51.39147 20290 ft 380 kts 45°
2026-05-08 09:14 24.50394 51.41147 19805 ft 385 kts 45°
2026-05-08 09:14 24.52467 51.43017 19315 ft 388 kts 33°
2026-05-08 09:14 24.54821 51.44493 18733 ft 391 kts 30°
2026-05-08 09:15 24.57223 51.45919 18168 ft 393 kts 30°
2026-05-08 09:15 24.59643 51.47338 17528 ft 395 kts 30°
2026-05-08 09:15 24.62070 51.48766 16897 ft 396 kts 30°
2026-05-08 09:15 24.64499 51.50195 16279 ft 397 kts 29°
2026-05-08 09:16 24.66948 51.51599 15672 ft 397 kts 28°
2026-05-08 09:16 24.69405 51.52991 15076 ft 397 kts 28°
2026-05-08 09:16 24.71859 51.54386 14491 ft 397 kts 30°
2026-05-08 09:16 24.74305 51.55770 13910 ft 390 kts 28°
2026-05-08 09:17 24.76668 51.57114 13304 ft 374 kts 28°
2026-05-08 09:17 24.78934 51.58411 12672 ft 360 kts 29°
2026-05-08 09:17 24.81095 51.59641 12065 ft 349 kts 29°
2026-05-08 09:17 24.83218 51.60852 11469 ft 339 kts 28°
2026-05-08 09:18 24.85284 51.62019 10874 ft 330 kts 28°
2026-05-08 09:18 24.87311 51.63162 10199 ft 325 kts 28°
2026-05-08 09:18 24.89306 51.64293 9514 ft 320 kts 27°
2026-05-08 09:18 24.91271 51.65410 8792 ft 316 kts 27°
2026-05-08 09:19 24.93204 51.66511 8080 ft 311 kts 27°
2026-05-08 09:19 24.95116 51.67602 7388 ft 307 kts 27°
2026-05-08 09:19 24.96996 51.68677 6712 ft 302 kts 27°
2026-05-08 09:19 24.98852 51.69737 6037 ft 298 kts 26°
2026-05-08 09:20 25.00680 51.70780 5340 ft 293 kts 26°
2026-05-08 09:20 25.02573 51.71512 4607 ft 286 kts 10°
2026-05-08 09:20 25.04518 51.71592 4106 ft 273 kts 354°
2026-05-08 09:20 25.06304 51.71131 3784 ft 257 kts 341°
2026-05-08 09:21 25.07917 51.70424 3477 ft 242 kts 341°
2026-05-08 09:21 25.09426 51.69761 3184 ft 226 kts 341°
2026-05-08 09:22 25.16915 51.66472 1726 ft 158 kts 342°
2026-05-08 09:23 25.17890 51.66043 1547 ft 144 kts 342°
2026-05-08 09:23 25.18782 51.65651 1352 ft 134 kts 343°
2026-05-08 09:23 25.19634 51.65277 1203 ft 130 kts 342°
2026-05-08 09:23 25.20466 51.64913 1024 ft 128 kts 342°
2026-05-08 09:24 25.21306 51.64544 872 ft 132 kts 341°
2026-05-08 09:24 25.22154 51.64171 730 ft 131 kts 343°
2026-05-08 09:24 25.22984 51.63806 594 ft 127 kts 341°
2026-05-08 09:24 25.23839 51.63431 407 ft 135 kts 341°
2026-05-08 09:25 25.24710 51.63047 251 ft 134 kts 340°
2026-05-08 09:25 25.25556 51.62668 135 ft 129 kts 340°
2026-05-08 09:25 25.26381 51.62318 28 ft 120 kts 343°
2026-05-08 09:25 25.27006 51.62028 23 ft 73 kts 337°
2026-05-08 09:26 25.27358 51.61872 26 ft 33 kts 325°
2026-05-08 09:26 25.27461 51.61725 28 ft 19 kts 306°
2026-05-08 09:26 25.27437 51.61652 29 ft 8 kts 195°
2026-05-08 09:26 25.27386 51.61664 29 ft 7 kts 155°
2026-05-08 09:27 25.27344 51.61684 29 ft 6 kts 157°
2026-05-08 09:27 25.27306 51.61701 29 ft 6 kts 159°
2026-05-08 09:27 25.27269 51.61716 28 ft 6 kts 159°
2026-05-08 09:27 25.27216 51.61739 28 ft 10 kts 158°
2026-05-08 09:28 25.27138 51.61768 28 ft 13 kts 179°
2026-05-08 09:28 25.27083 51.61686 30 ft 15 kts 249°
2026-05-08 09:28 25.27046 51.61584 30 ft 14 kts 247°
2026-05-08 09:28 25.27013 51.61492 30 ft 12 kts 249°
2026-05-08 09:29 25.26958 51.61431 30 ft 11 kts 204°
2026-05-08 09:29 25.26891 51.61400 30 ft 10 kts 202°
2026-05-08 09:29 25.26848 51.61355 30 ft 8 kts 269°
2026-05-08 09:29 25.26870 51.61298 30 ft 9 kts 292°
2026-05-08 09:30 25.26877 51.61279 30 ft 0 kts 293°